Latest Coastal Weather Observations for Bairnsdale

IDV60701

Issued at 10:21 am EST Monday 27 June 2016 (issued every 10 minutes, with the page automatically refreshed every 10 minutes)

About coastal observations | Map of coastal stations | Coastal observations for VIC | Marine services | Other Formats
Station Details ID: 085279 Name: BAIRNSDALE AIRPORT Lat: -37.88 Lon: 147.57 Height: 49.4 m
Data from the previous 72 hours. | See also: Recent months at Bairnsdale
Date/Time
EST
Temp
°C
Wind Pressure Rain since
9am
mm
Weather Cloud Vis
km
Sea
Height
m
Swell
Dir  Spd
kts
Gust
kts
hPa Trend Height
m
Period
s
Dir
27/10:00am 7.6 NW 7 10 1017.0 - 0.0 - - 10 - - - -
27/09:30am 5.9 NW 6 8 1016.8 - 0.0 - - 10 - - - -
27/09:00am 4.9 NW 7 8 1016.7 - 0.2 - - 10 - - - -
27/08:30am 3.7 NW 7 9 1016.6 - 0.2 - - 10 - - - -
27/08:00am 2.4 NW 7 10 1016.4 - 0.2 - - 10 - - - -
27/07:30am 1.6 NW 8 9 1016.3 - 0.2 - - 10 - - - -
27/07:00am 2.4 NW 8 10 1016.3 - 0.2 - - 10 - - - -
27/06:30am 2.4 NW 9 11 1016.1 - 0.2 - - 10 - - - -
27/06:00am 1.9 NW 8 11 1016.1 - 0.2 - Partly cloudy 10 - - - -
27/05:30am 1.7 NW 7 9 1015.9 - 0.2 - - 10 - - - -
27/05:00am 1.7 NW 7 9 1015.7 - 0.2 - - 10 - - - -
27/04:30am 1.3 NW 5 7 1015.7 - 0.2 - - 10 - - - -
27/04:00am 2.3 NW 7 8 1015.8 - 0.2 - - 10 - - - -
27/03:30am 2.2 NW 6 8 1016.0 - 0.2 - - 10 - - - -
27/03:00am 2.8 NW 8 9 1016.1 - 0.2 - Mostly clear 10 - - - -
27/02:30am 2.6 NW 7 9 1016.1 - 0.2 - - 10 - - - -
27/02:00am 2.6 NW 6 8 1016.2 - 0.2 - - 10 - - - -
27/01:30am 2.5 WNW 7 8 1016.1 - 0.2 - - 10 - - - -
27/01:00am 2.1 NW 7 8 1015.9 - 0.2 - - 8 - - - -
27/12:30am 2.9 WNW 6 7 1016.0 - 0.2 - - 10 - - - -
27/12:00am 3.0 WNW 6 7 1016.2 - 0.2 - - 10 - - - -
 
Date/Time
EST
Temp
°C
Wind Pressure Rain since
9am
mm
Weather Cloud Vis
km
Sea
Height
m
Swell
Dir  Spd
kts
Gust
kts
hPa Trend Height
m
Period
s
Dir
26/11:30pm 3.4 W 6 7 1016.3 - 0.2 - - 10 - - - -
26/11:00pm 3.5 W 5 5 1016.4 - 0.2 - - 10 - - - -
26/10:30pm 4.1 WNW 7 8 1016.5 - 0.2 - Partly cloudy 10 - - - -
26/10:00pm 4.2 NW 7 8 1016.4 - 0.2 - - 10 - - - -
26/09:30pm 4.2 WNW 6 7 1016.5 - 0.2 - - 10 - - - -
26/09:00pm 4.3 NW 6 7 1016.7 - 0.2 - Mostly clear 10 - - - -
26/08:30pm 4.8 NW 5 7 1016.7 - 0.2 - - 10 - - - -
26/08:00pm 5.8 NW 5 5 1016.9 - 0.2 - - 10 - - - -
26/07:30pm 6.0 NW 7 8 1016.9 - 0.2 - - 10 - - - -
26/07:00pm 5.0 NW 5 6 1016.8 - 0.2 - Partly cloudy 10 - - - -
26/06:30pm 5.1 NW 5 5 1016.6 - 0.2 - Partly cloudy 10 - - - -
26/06:00pm 4.7 SSW 3 3 1016.3 - 0.2 - Mostly clear 10 - - - -
26/05:30pm 5.7 SSW 3 3 1016.2 - 0.2 - - 10 - - - -
26/05:00pm 7.2 SSE 4 4 1016.1 - 0.2 - - 10 - - - -
26/04:30pm 9.2 SSE 5 6 1016.1 - 0.2 - - 10 - - - -
26/04:00pm 10.2 SSW 7 8 1016.1 - 0.2 - - 10 - - - -
26/03:30pm 11.1 SE 6 7 1016.0 - 0.2 - - 10 - - - -
26/03:00pm 11.5 SSE 5 7 1016.2 - 0.2 - - 10 - - - -
26/02:30pm 12.1 SE 3 5 1016.2 - 0.2 - - 10 - - - -
26/02:00pm 12.4 ESE 4 5 1016.4 - 0.2 - - 10 - - - -
26/01:30pm 12.5 ESE 4 6 1016.7 - 0.0 - - 10 - - - -
26/01:00pm 12.5 NE 4 5 1017.1 - 0.0 - - 10 - - - -
26/12:30pm 12.5 NNE 2 4 1017.6 - 0.0 - - 10 - - - -
26/12:00pm 12.0 NW 4 6 1018.3 - 0.0 - - 10 - - - -
26/11:30am 11.1 WNW 5 6 1019.1 - 0.0 - - 10 - - - -
26/11:00am 11.1 NW 6 8 1019.7 - 0.0 - - 10 - - - -
26/10:30am 10.1 NW 6 8 1020.2 - 0.0 - - 10 - - - -
26/10:00am 8.6 NW 7 9 1020.5 - 0.0 - - 10 - - - -
26/09:30am 7.3 NW 8 10 1020.5 - 0.0 - - 10 - - - -
26/09:00am 5.4 NW 8 10 1020.5 - 0.0 - Mostly clear 10 - - - -
26/08:30am 5.2 NW 9 11 1020.6 - 0.0 - Cloudy 10 - - - -
26/08:00am 4.9 WNW 11 13 1020.7 - 0.0 - Partly cloudy 10 - - - -
26/07:30am 5.0 WNW 9 13 1020.6 - 0.0 - - 10 - - - -
26/07:00am 4.5 WNW 9 11 1020.5 - 0.0 - - 10 - - - -
26/06:30am 4.4 WNW 9 10 1020.1 - 0.0 - Partly cloudy 10 - - - -
26/06:00am 3.4 WSW 7 8 1020.1 - 0.0 - Mostly clear 10 - - - -
26/05:30am 4.3 WSW 6 8 1020.0 - 0.0 - Partly cloudy 10 - - - -
26/05:00am 4.8 WNW 7 8 1019.7 - 0.0 - Cloudy 10 - - - -
26/04:30am 5.3 NW 8 11 1020.0 - 0.0 - Partly cloudy 10 - - - -
26/04:00am 5.6 NW 8 9 1020.2 - 0.0 - Partly cloudy 10 - - - -
26/03:30am 5.3 NW 8 11 1020.5 - 0.0 - Partly cloudy 10 - - - -
26/03:00am 4.8 WNW 8 10 1020.5 - 0.0 - Cloudy 10 - - - -
26/02:30am 5.1 NW 8 10 1020.4 - 0.0 - Partly cloudy 10 - - - -
26/02:00am 4.7 NW 8 10 1020.6 - 0.0 - Partly cloudy 10 - - - -
26/01:30am 5.3 NW 8 10 1020.7 - 0.0 - Cloudy 10 - - - -
26/01:00am 4.9 NW 8 9 1020.6 - 0.0 - Cloudy 10 - - - -
26/12:30am 4.3 NW 8 9 1020.9 - 0.0 - Partly cloudy 10 - - - -
26/12:00am 4.7 NW 8 10 1021.0 - 0.0 - Partly cloudy 10 - - - -
 
Date/Time
EST
Temp
°C
Wind Pressure Rain since
9am
mm
Weather Cloud Vis
km
Sea
Height
m
Swell
Dir  Spd
kts
Gust
kts
hPa Trend Height
m
Period
s
Dir
25/11:30pm 4.2 WNW 7 9 1021.1 - 0.0 - - 10 - - - -
25/11:00pm 4.4 WNW 8 10 1021.3 - 0.0 - - 10 - - - -
25/10:30pm 4.3 NW 7 8 1021.4 - 0.0 - - 10 - - - -
25/10:00pm 4.7 NW 8 10 1021.5 - 0.0 - - 10 - - - -
25/09:30pm 4.4 NW 7 9 1021.7 - 0.0 - - 10 - - - -
25/09:00pm 4.5 NW 7 9 1021.9 - 0.0 - Mostly clear 10 - - - -
25/08:30pm 4.6 WNW 7 8 1022.0 - 0.0 - - 10 - - - -
25/08:00pm 5.3 WNW 7 9 1022.0 - 0.0 - Partly cloudy 10 - - - -
25/07:30pm 5.0 WNW 7 9 1022.0 - 0.0 - Partly cloudy 10 - - - -
25/07:00pm 7.2 WNW 7 9 1022.1 - 0.0 - Partly cloudy 10 - - - -
25/06:30pm 7.4 WNW 7 9 1021.9 - 0.0 - Partly cloudy 10 - - - -
25/06:00pm 7.6 WNW 7 9 1021.8 - 0.0 - Cloudy 10 - - - -
25/05:30pm 7.9 W 7 9 1021.5 - 0.0 - Cloudy 10 - - - -
25/05:00pm 8.4 W 7 9 1021.3 - 0.0 - Partly cloudy 10 - - - -
25/04:30pm 9.4 W 9 15 1021.1 - 0.0 - - 10 - - - -
25/04:00pm 10.2 W 11 15 1021.0 - 0.0 - Cloudy 10 - - - -
25/03:30pm 10.7 W 11 17 1020.9 - 0.0 - Partly cloudy 10 - - - -
25/03:00pm 10.9 W 14 20 1020.7 - 0.0 - - 10 - - - -
25/02:30pm 10.8 W 12 18 1020.7 - 0.0 - Partly cloudy 10 - - - -
25/02:00pm 10.6 WSW 15 21 1020.7 - 0.0 - - 10 - - - -
25/01:30pm 10.8 W 15 22 1020.8 - 0.0 - - 10 - - - -
25/01:00pm 11.2 WSW 15 20 1020.8 - 0.0 - - 10 - - - -
25/12:30pm 10.9 W 13 19 1020.8 - 0.0 - - 10 - - - -
25/12:00pm 10.6 W 14 18 1021.2 - 0.0 - - 10 - - - -
25/11:30am 10.0 W 14 19 1021.3 - 0.0 - - 10 - - - -
25/11:00am 9.7 W 12 16 1021.5 - 0.0 - - 10 - - - -
25/10:30am 9.0 W 13 18 1021.5 - 0.0 - - 10 - - - -
25/10:00am 8.4 W 15 21 1021.2 - 0.0 - - 10 - - - -
25/09:30am 7.8 W 14 20 1020.8 - 0.0 - - 10 - - - -
25/09:00am 6.8 WNW 12 17 1020.5 - 0.0 - - 10 - - - -
25/08:30am 6.1 W 11 15 1020.3 - 0.0 - - 10 - - - -
25/08:00am 5.4 W 12 16 1020.2 - 0.0 - Partly cloudy 10 - - - -
25/07:30am 4.5 WNW 12 16 1019.8 - 0.0 - - 10 - - - -
25/07:00am 4.4 WNW 11 14 1019.5 - 0.0 - Partly cloudy 10 - - - -
25/06:30am 4.5 WNW 11 14 1019.2 - 0.0 - - 10 - - - -
25/06:00am 4.1 WNW 10 13 1018.8 - 0.0 - - 10 - - - -
25/05:30am 4.4 WNW 11 15 1018.4 - 0.0 - - 10 - - - -
25/05:00am 4.3 WNW 12 16 1018.0 - 0.0 - - 10 - - - -
25/04:30am 4.3 WNW 12 16 1017.7 - 0.0 - - 10 - - - -
25/04:00am 4.4 WNW 13 18 1017.4 - 0.0 - - 10 - - - -
25/03:30am 3.9 WNW 11 14 1017.2 - 0.0 - - 10 - - - -
25/03:00am 3.9 WNW 10 13 1017.0 - 0.0 - - 10 - - - -
25/02:30am 4.3 WNW 11 15 1016.7 - 0.0 - - 10 - - - -
25/02:00am 4.3 WNW 12 16 1016.3 - 0.0 - - 10 - - - -
25/01:30am 4.5 WNW 12 16 1016.0 - 0.0 - - 10 - - - -
25/01:00am 4.8 WNW 14 22 1015.6 - 0.0 - - 10 - - - -
25/12:30am 4.6 WNW 14 18 1015.5 - 0.0 - - 10 - - - -
25/12:00am 4.1 WNW 12 15 1015.2 - 0.0 - - 10 - - - -
 
Date/Time
EST
Temp
°C
Wind Pressure Rain since
9am
mm
Weather Cloud Vis
km
Sea
Height
m
Swell
Dir  Spd
kts
Gust
kts
hPa Trend Height
m
Period
s
Dir
24/11:30pm 4.0 WNW 11 15 1014.8 - 0.0 - - 10 - - - -
24/11:00pm 4.5 W 13 17 1014.5 - 0.0 - - 10 - - - -
24/10:30pm 4.2 WNW 13 17 1014.1 - 0.0 - - 10 - - - -
24/10:00pm 4.0 WNW 10 14 1013.9 - 0.0 - Partly cloudy 10 - - - -
24/09:30pm 4.6 W 10 14 1013.5 - 0.0 - Partly cloudy 10 - - - -
24/09:00pm 4.6 W 11 17 1013.3 - 0.0 - Partly cloudy 10 - - - -
24/08:30pm 4.3 WNW 12 15 1012.4 - 0.0 - Partly cloudy 10 - - - -
24/08:00pm 4.9 WNW 13 19 1011.7 - 0.0 - Partly cloudy 10 - - - -
24/07:30pm 4.9 W 17 24 1011.4 - 0.0 - Partly cloudy 10 - - - -
24/07:00pm 4.8 WNW 12 17 1010.9 - 0.0 - Partly cloudy 10 - - - -
24/06:30pm 4.0 W 9 13 1010.3 - 0.0 - Partly cloudy 10 - - - -
24/06:00pm 4.4 WNW 12 17 1009.5 - 0.0 - Partly cloudy 10 - - - -
24/05:30pm 4.6 W 16 22 1009.2 - 0.0 - Partly cloudy 10 - - - -
24/05:00pm 4.6 W 19 25 1008.3 - 0.0 - Partly cloudy 10 - - - -
24/04:34pm 5.0 W 18 28 1007.5 - 0.0 - Partly cloudy 10 - - - -
24/04:30pm 5.1 W 19 28 1007.4 - 0.0 - Partly cloudy 10 - - - -
24/04:12pm 5.7 W 18 28 1006.9 - 0.0 - Partly cloudy 10 - - - -
24/04:00pm 5.7 W 19 26 1006.5 - 0.0 - Partly cloudy 10 - - - -
24/03:42pm 6.8 WSW 18 29 1005.9 - 0.0 - Partly cloudy 10 - - - -
24/03:30pm 7.1 W 19 27 1005.6 - 0.0 - Partly cloudy 10 - - - -
24/03:03pm 7.2 W 18 28 1004.8 - 0.0 - Partly cloudy 10 - - - -
24/03:00pm 7.3 WSW 20 28 1004.7 - 0.0 - Mostly cloudy 10 - - - -
24/02:30pm 9.3 WSW 19 27 1003.9 - 0.0 - Partly cloudy 10 - - - -
24/02:14pm 9.4 WSW 18 29 1003.5 - 0.0 - Partly cloudy 10 - - - -
24/02:00pm 9.6 W 17 23 1003.3 - 0.0 - Partly cloudy 10 - - - -
24/01:48pm 9.5 WSW 16 26 1003.2 - 0.0 - Partly cloudy 10 - - - -
24/01:30pm 9.0 WSW 17 24 1003.0 - 0.0 - Partly cloudy 10 - - - -
24/01:00pm 10.3 W 15 22 1002.7 - 0.0 - - 10 - - - -
24/12:30pm 10.1 WSW 15 21 1002.7 - 0.0 - - 10 - - - -
24/12:00pm 9.0 W 14 19 1002.9 - 0.0 - Partly cloudy 10 - - - -
24/11:30am 7.5 WSW 12 17 1003.2 - 0.0 - Partly cloudy 10 - - - -
24/11:00am 8.0 WSW 13 18 1002.8 - 0.0 - Partly cloudy 10 - - - -
24/10:30am 8.3 WNW 9 16 1002.1 - 0.0 - Partly cloudy 10 - - - -

Other Formats:

Comma delimited format used in spreadsheet applications
http://www.bom.gov.au/fwo/IDV60701/IDV60701.94912.axf

JavaScript Object Notation format (JSON) in row-major order
http://www.bom.gov.au/fwo/IDV60701/IDV60701.94912.json